Year,Month,Day,Hour,Minute,Value (Times are PST for temperature in C)
2011,08,09,07,57,14.80
2011,08,09,07,58,14.80
2011,08,09,07,59,14.80
2011,08,09,08,00,14.80
2011,08,09,08,01,14.80
2011,08,09,08,02,14.80
2011,08,09,08,03,14.80
2011,08,09,08,04,14.80
2011,08,09,08,05,14.80
2011,08,09,08,06,14.80
2011,08,09,08,07,14.80
2011,08,09,08,08,14.90
2011,08,09,08,09,14.90
2011,08,09,08,10,14.90
2011,08,09,08,11,15.00
2011,08,09,08,12,15.00
2011,08,09,08,13,15.00
2011,08,09,08,14,15.10
2011,08,09,08,15,15.10
2011,08,09,08,16,15.10
2011,08,09,08,17,15.20
2011,08,09,08,18,15.20
2011,08,09,08,19,15.20
2011,08,09,08,20,15.20
2011,08,09,08,21,15.20
2011,08,09,08,22,15.30
2011,08,09,08,23,15.30
2011,08,09,08,24,15.30
2011,08,09,08,25,15.30
2011,08,09,08,26,15.30
2011,08,09,08,27,15.40
2011,08,09,08,28,15.40
2011,08,09,08,29,15.50
2011,08,09,08,30,15.50
2011,08,09,08,31,15.50
2011,08,09,08,32,15.50
2011,08,09,08,33,15.60
2011,08,09,08,34,15.60
2011,08,09,08,35,15.70
2011,08,09,08,36,15.70
2011,08,09,08,37,15.80
2011,08,09,08,38,15.90
2011,08,09,08,39,16.00
2011,08,09,08,40,16.10
2011,08,09,08,41,16.10
2011,08,09,08,42,16.20
2011,08,09,08,43,16.30
2011,08,09,08,44,16.30
2011,08,09,08,45,16.40
2011,08,09,08,46,16.40
2011,08,09,08,47,16.40
2011,08,09,08,48,16.40
2011,08,09,08,49,16.40
2011,08,09,08,50,16.40
2011,08,09,08,51,16.50
2011,08,09,08,52,16.50
2011,08,09,08,53,16.60
2011,08,09,08,54,16.60
2011,08,09,08,55,16.60
2011,08,09,08,56,16.60
2011,08,09,08,57,16.60
2011,08,09,08,58,16.60
2011,08,09,08,59,16.60
2011,08,09,09,00,16.60
2011,08,09,09,01,16.60
2011,08,09,09,02,16.60
2011,08,09,09,03,16.70
2011,08,09,09,04,16.70
2011,08,09,09,05,16.70
2011,08,09,09,06,16.70
2011,08,09,09,07,16.70
2011,08,09,09,08,16.70
2011,08,09,09,09,16.70
2011,08,09,09,10,16.70
2011,08,09,09,11,16.70
2011,08,09,09,12,16.70
2011,08,09,09,13,16.70
2011,08,09,09,14,16.70
2011,08,09,09,15,16.60
2011,08,09,09,16,16.60
2011,08,09,09,17,16.60
2011,08,09,09,18,16.50
2011,08,09,09,19,16.40
2011,08,09,09,20,16.40
2011,08,09,09,21,16.40
2011,08,09,09,22,16.50
2011,08,09,09,23,16.60
2011,08,09,09,24,16.60
2011,08,09,09,25,16.60
2011,08,09,09,26,16.60
2011,08,09,09,27,16.60
2011,08,09,09,28,16.60
2011,08,09,09,29,16.70
2011,08,09,09,30,16.70
2011,08,09,09,31,16.70
2011,08,09,09,32,16.70
2011,08,09,09,33,16.70
2011,08,09,09,34,16.70
2011,08,09,09,35,16.70
2011,08,09,09,36,16.70
2011,08,09,09,37,16.80
2011,08,09,09,38,16.80
2011,08,09,09,39,16.80
2011,08,09,09,40,16.80
2011,08,09,09,41,16.80
2011,08,09,09,42,16.80
2011,08,09,09,43,16.80
2011,08,09,09,44,16.70
2011,08,09,09,45,16.70
2011,08,09,09,46,16.70
2011,08,09,09,47,16.70
2011,08,09,09,48,16.70
2011,08,09,09,49,16.70
2011,08,09,09,50,16.70
2011,08,09,09,51,16.70
2011,08,09,09,52,16.70
2011,08,09,09,53,16.70
2011,08,09,09,54,16.80
2011,08,09,09,55,16.80
2011,08,09,09,56,16.80
2011,08,09,09,57,16.80
2011,08,09,09,58,16.80
2011,08,09,09,59,16.80
2011,08,09,10,00,16.80
2011,08,09,10,01,16.80
2011,08,09,10,02,16.90
2011,08,09,10,03,16.90
2011,08,09,10,04,16.90
2011,08,09,10,05,16.90
2011,08,09,10,06,16.90
2011,08,09,10,07,16.90
2011,08,09,10,08,16.90
2011,08,09,10,09,16.90
2011,08,09,10,10,16.90
2011,08,09,10,11,16.90
2011,08,09,10,12,16.80
2011,08,09,10,13,16.80
2011,08,09,10,14,16.70
2011,08,09,10,15,16.70
2011,08,09,10,16,16.60
2011,08,09,10,17,16.60
2011,08,09,10,18,16.50
2011,08,09,10,19,16.40
2011,08,09,10,20,16.40
2011,08,09,10,21,16.40
2011,08,09,10,22,16.50
2011,08,09,10,23,16.60
2011,08,09,10,24,16.70
2011,08,09,10,25,16.70
2011,08,09,10,26,16.80
2011,08,09,10,27,16.80
2011,08,09,10,28,16.80
2011,08,09,10,29,16.80
2011,08,09,10,30,16.80
2011,08,09,10,31,16.80
2011,08,09,10,32,16.70
2011,08,09,10,33,16.70
2011,08,09,10,34,16.70
2011,08,09,10,35,16.70
2011,08,09,10,36,16.70
2011,08,09,10,37,16.60
2011,08,09,10,38,16.60
2011,08,09,10,39,16.50
2011,08,09,10,40,16.40
2011,08,09,10,41,16.40
2011,08,09,10,42,16.40
2011,08,09,10,43,16.40
2011,08,09,10,44,16.40
2011,08,09,10,45,16.50
2011,08,09,10,46,16.60
2011,08,09,10,47,16.60
2011,08,09,10,48,16.60
2011,08,09,10,49,16.60
2011,08,09,10,50,16.70
2011,08,09,10,51,16.70
2011,08,09,10,52,16.70
2011,08,09,10,53,16.70
2011,08,09,10,54,16.80
2011,08,09,10,55,16.80
2011,08,09,10,56,16.90
2011,08,09,10,57,16.90
2011,08,09,10,58,16.90
2011,08,09,10,59,17.00
2011,08,09,11,00,17.00
2011,08,09,11,01,17.10
2011,08,09,11,02,17.10
2011,08,09,11,03,17.20
2011,08,09,11,04,17.10
2011,08,09,11,05,17.10
2011,08,09,11,06,17.10
2011,08,09,11,07,17.10
2011,08,09,11,08,17.10
2011,08,09,11,09,17.10
2011,08,09,11,10,17.10
2011,08,09,11,11,17.10
2011,08,09,11,12,17.10
2011,08,09,11,13,17.10
2011,08,09,11,14,17.10
2011,08,09,11,15,17.10
2011,08,09,11,16,17.10
2011,08,09,11,17,17.10
2011,08,09,11,18,17.00
2011,08,09,11,19,17.00
2011,08,09,11,20,17.00
2011,08,09,11,21,17.00
2011,08,09,11,22,17.00
2011,08,09,11,23,17.00
2011,08,09,11,24,17.10
2011,08,09,11,25,17.10
2011,08,09,11,26,17.20
2011,08,09,11,27,17.20
2011,08,09,11,28,17.30
2011,08,09,11,29,17.30
2011,08,09,11,30,17.30
2011,08,09,11,31,17.30
2011,08,09,11,32,17.40
2011,08,09,11,33,17.40
2011,08,09,11,34,17.50
2011,08,09,11,35,17.50
2011,08,09,11,36,17.60
2011,08,09,11,37,17.60
2011,08,09,11,38,17.70
2011,08,09,11,39,17.70
2011,08,09,11,40,17.60
2011,08,09,11,41,17.60
2011,08,09,11,42,17.70
2011,08,09,11,43,17.70
2011,08,09,11,44,17.70
2011,08,09,11,45,17.70
2011,08,09,11,46,17.70
2011,08,09,11,47,17.60
2011,08,09,11,48,17.60
2011,08,09,11,49,17.60
2011,08,09,11,50,17.50
2011,08,09,11,51,17.50
2011,08,09,11,52,17.60
2011,08,09,11,53,17.60
2011,08,09,11,54,17.70
2011,08,09,11,55,17.80
2011,08,09,11,56,17.90
2011,08,09,11,57,17.90
2011,08,09,11,58,17.90
2011,08,09,11,59,17.90
2011,08,09,12,00,17.90
2011,08,09,12,01,17.90
2011,08,09,12,02,17.90
2011,08,09,12,03,18.00
2011,08,09,12,04,18.10
2011,08,09,12,05,18.20
2011,08,09,12,06,18.30
2011,08,09,12,07,18.40
2011,08,09,12,08,18.40
2011,08,09,12,09,18.40
2011,08,09,12,10,18.20
2011,08,09,12,11,18.10
2011,08,09,12,12,18.10
2011,08,09,12,13,18.00
2011,08,09,12,14,18.00
2011,08,09,12,15,18.10
2011,08,09,12,16,18.20
2011,08,09,12,17,18.40
2011,08,09,12,18,18.50
2011,08,09,12,19,18.70
2011,08,09,12,20,18.70
2011,08,09,12,21,18.70
2011,08,09,12,22,18.80
2011,08,09,12,23,18.90
2011,08,09,12,24,18.90
2011,08,09,12,25,18.80
2011,08,09,12,26,18.80
2011,08,09,12,27,18.90
2011,08,09,12,28,18.90
2011,08,09,12,29,18.80
2011,08,09,12,30,18.90
2011,08,09,12,31,18.90
2011,08,09,12,32,18.90
2011,08,09,12,33,18.90
2011,08,09,12,34,19.00
2011,08,09,12,35,18.90
2011,08,09,12,36,18.90
2011,08,09,12,37,18.90
2011,08,09,12,38,18.90
2011,08,09,12,39,18.90
2011,08,09,12,40,18.80
2011,08,09,12,41,18.80
2011,08,09,12,42,18.70
2011,08,09,12,43,18.70
2011,08,09,12,44,18.70
2011,08,09,12,45,18.70
2011,08,09,12,46,18.70
2011,08,09,12,47,18.60
2011,08,09,12,48,18.60
2011,08,09,12,49,18.60
2011,08,09,12,50,18.70
2011,08,09,12,51,18.80
2011,08,09,12,52,18.80
2011,08,09,12,53,18.90
2011,08,09,12,54,18.90
2011,08,09,12,55,18.90
2011,08,09,12,56,18.80
2011,08,09,12,57,18.80
2011,08,09,12,58,18.70
2011,08,09,12,59,18.60
2011,08,09,13,00,18.60
2011,08,09,13,01,18.60
2011,08,09,13,02,18.60
2011,08,09,13,03,18.60
2011,08,09,13,04,18.50
2011,08,09,13,05,18.50
2011,08,09,13,06,18.50
2011,08,09,13,07,18.50
2011,08,09,13,08,18.50
2011,08,09,13,09,18.60
2011,08,09,13,10,18.70
2011,08,09,13,11,18.80
2011,08,09,13,12,18.90
2011,08,09,13,13,18.80
2011,08,09,13,14,18.80
2011,08,09,13,15,18.80
2011,08,09,13,16,18.90
2011,08,09,13,17,19.00
2011,08,09,13,18,19.10
2011,08,09,13,19,19.20
2011,08,09,13,20,19.40
2011,08,09,13,21,19.40
2011,08,09,13,22,19.50
2011,08,09,13,23,19.50
2011,08,09,13,24,19.40
2011,08,09,13,25,19.40
2011,08,09,13,26,19.30
2011,08,09,13,27,19.30
2011,08,09,13,28,19.40
2011,08,09,13,29,19.40
2011,08,09,13,30,19.50
2011,08,09,13,31,19.50
2011,08,09,13,32,19.70
2011,08,09,13,33,19.70
2011,08,09,13,34,19.70
2011,08,09,13,35,19.80
2011,08,09,13,36,19.80
2011,08,09,13,37,19.80
2011,08,09,13,38,19.80
2011,08,09,13,39,19.70
2011,08,09,13,40,19.60
2011,08,09,13,41,19.50
2011,08,09,13,42,19.50
2011,08,09,13,43,19.50
2011,08,09,13,44,19.60
2011,08,09,13,45,19.70
2011,08,09,13,46,19.70
2011,08,09,13,47,19.60
2011,08,09,13,48,19.60
2011,08,09,13,49,19.60
2011,08,09,13,50,19.60
2011,08,09,13,51,19.60
2011,08,09,13,52,19.60
2011,08,09,13,53,19.60
2011,08,09,13,54,19.70
2011,08,09,13,55,19.60
2011,08,09,13,56,19.40
2011,08,09,13,57,19.50
2011,08,09,13,58,19.60
2011,08,09,13,59,19.60
2011,08,09,14,00,19.70
2011,08,09,14,01,19.80
2011,08,09,14,02,19.90
2011,08,09,14,03,19.80
2011,08,09,14,04,19.80
2011,08,09,14,05,19.90
2011,08,09,14,06,19.90
2011,08,09,14,07,19.80
2011,08,09,14,08,19.80
2011,08,09,14,09,19.80
2011,08,09,14,10,19.80
2011,08,09,14,11,19.80
2011,08,09,14,12,19.70
2011,08,09,14,13,19.70
2011,08,09,14,14,19.70
2011,08,09,14,15,19.70
2011,08,09,14,16,19.70
2011,08,09,14,17,19.60
2011,08,09,14,18,19.60
2011,08,09,14,19,19.60
2011,08,09,14,20,19.80
2011,08,09,14,21,19.90
2011,08,09,14,22,19.90
2011,08,09,14,23,19.90
2011,08,09,14,24,19.90
2011,08,09,14,25,19.90
2011,08,09,14,26,19.90
2011,08,09,14,27,19.90
2011,08,09,14,28,20.00
2011,08,09,14,29,20.10
2011,08,09,14,30,20.20
2011,08,09,14,31,20.20
2011,08,09,14,32,20.20
2011,08,09,14,33,20.20
2011,08,09,14,34,20.20
2011,08,09,14,35,20.20
2011,08,09,14,36,20.30
2011,08,09,14,37,20.30
2011,08,09,14,38,20.40
2011,08,09,14,39,20.40
2011,08,09,14,40,20.40
2011,08,09,14,41,20.40
2011,08,09,14,42,20.40
2011,08,09,14,43,20.40
2011,08,09,14,44,20.50
2011,08,09,14,45,20.40
2011,08,09,14,46,20.30
2011,08,09,14,47,20.20
2011,08,09,14,48,20.10
2011,08,09,14,49,20.10
2011,08,09,14,50,20.00
2011,08,09,14,51,20.10
2011,08,09,14,52,20.10
2011,08,09,14,53,20.20
2011,08,09,14,54,20.40
2011,08,09,14,55,20.40
2011,08,09,14,56,20.50
2011,08,09,14,57,20.40
2011,08,09,14,58,20.40
2011,08,09,14,59,20.40
2011,08,09,15,00,20.30
2011,08,09,15,01,20.20
2011,08,09,15,02,20.10
2011,08,09,15,03,20.10
2011,08,09,15,04,20.10
2011,08,09,15,05,20.00
2011,08,09,15,06,19.90
2011,08,09,15,07,19.90
2011,08,09,15,08,20.00
2011,08,09,15,09,20.10
2011,08,09,15,10,20.20
2011,08,09,15,11,20.20
2011,08,09,15,12,20.20
2011,08,09,15,13,20.20
2011,08,09,15,14,20.30
2011,08,09,15,15,20.30
2011,08,09,15,16,20.40
2011,08,09,15,17,20.30
2011,08,09,15,18,20.30
2011,08,09,15,19,20.30
2011,08,09,15,20,20.20
2011,08,09,15,21,20.20
2011,08,09,15,22,20.00
2011,08,09,15,23,19.90
2011,08,09,15,24,19.90
2011,08,09,15,25,19.90
2011,08,09,15,26,19.90
2011,08,09,15,27,20.00
2011,08,09,15,28,20.10
2011,08,09,15,29,20.10
2011,08,09,15,30,20.20
2011,08,09,15,31,20.20
2011,08,09,15,32,20.20
2011,08,09,15,33,20.30
2011,08,09,15,34,20.40
2011,08,09,15,35,20.50
2011,08,09,15,36,20.70
2011,08,09,15,37,20.80
2011,08,09,15,38,21.00
2011,08,09,15,39,21.10
2011,08,09,15,40,21.10
2011,08,09,15,41,21.20
2011,08,09,15,42,21.30
2011,08,09,15,43,21.30
2011,08,09,15,44,21.30
2011,08,09,15,45,21.30
2011,08,09,15,46,21.40
2011,08,09,15,47,21.50
2011,08,09,15,48,21.60
2011,08,09,15,49,21.60
2011,08,09,15,50,21.60
2011,08,09,15,51,21.70
2011,08,09,15,52,21.70
2011,08,09,15,53,21.70
2011,08,09,15,54,21.60
2011,08,09,15,55,21.60
2011,08,09,15,56,21.60
2011,08,09,15,57,21.60
2011,08,09,15,58,21.60
2011,08,09,15,59,21.60
2011,08,09,16,00,21.60
2011,08,09,16,01,21.60
2011,08,09,16,02,21.60
2011,08,09,16,03,21.70
2011,08,09,16,04,21.80
2011,08,09,16,05,21.90
2011,08,09,16,06,22.00
2011,08,09,16,07,22.00
2011,08,09,16,08,22.10
2011,08,09,16,09,22.10
2011,08,09,16,10,22.20
2011,08,09,16,11,22.20
2011,08,09,16,12,22.30
2011,08,09,16,13,22.30
2011,08,09,16,14,22.40
2011,08,09,16,15,22.40
2011,08,09,16,16,22.50
2011,08,09,16,17,22.60
2011,08,09,16,18,22.60
2011,08,09,16,19,22.60
2011,08,09,16,20,22.60
2011,08,09,16,21,22.50
2011,08,09,16,22,22.50
2011,08,09,16,23,22.40
2011,08,09,16,24,22.40
2011,08,09,16,25,22.40
2011,08,09,16,26,22.30
2011,08,09,16,27,22.20
2011,08,09,16,28,22.20
2011,08,09,16,29,22.20
2011,08,09,16,30,22.30
2011,08,09,16,31,22.30
2011,08,09,16,32,22.30
2011,08,09,16,33,22.30
2011,08,09,16,34,22.40
2011,08,09,16,35,22.40
2011,08,09,16,36,22.50
2011,08,09,16,37,22.50
2011,08,09,16,38,22.50
2011,08,09,16,39,22.40
2011,08,09,16,40,22.20
2011,08,09,16,41,22.00
2011,08,09,16,42,21.90
2011,08,09,16,43,21.80
2011,08,09,16,44,21.80
2011,08,09,16,45,21.80
2011,08,09,16,46,21.70
2011,08,09,16,47,21.70
2011,08,09,16,48,21.70
2011,08,09,16,49,21.80
2011,08,09,16,50,21.80
2011,08,09,16,51,21.80
2011,08,09,16,52,21.80
2011,08,09,16,53,21.80
2011,08,09,16,54,21.80
2011,08,09,16,55,21.80
2011,08,09,16,56,21.90
2011,08,09,16,57,21.90
2011,08,09,16,58,22.00
2011,08,09,16,59,22.00
2011,08,09,17,00,22.00
2011,08,09,17,01,22.10
2011,08,09,17,02,22.10
2011,08,09,17,03,22.20
2011,08,09,17,04,22.20
2011,08,09,17,05,22.10
2011,08,09,17,06,22.10
2011,08,09,17,07,22.10
2011,08,09,17,08,22.10
2011,08,09,17,09,22.10
2011,08,09,17,10,22.10
2011,08,09,17,11,22.10
2011,08,09,17,12,22.10
2011,08,09,17,13,22.10
2011,08,09,17,14,22.10
2011,08,09,17,15,22.10
2011,08,09,17,16,22.00
2011,08,09,17,17,22.00
2011,08,09,17,18,21.90
2011,08,09,17,19,21.90
2011,08,09,17,20,21.80
2011,08,09,17,21,21.80
2011,08,09,17,22,21.70
2011,08,09,17,23,21.60
2011,08,09,17,24,21.60
2011,08,09,17,25,21.60
2011,08,09,17,26,21.60
2011,08,09,17,27,21.60
2011,08,09,17,28,21.60
2011,08,09,17,29,21.60
2011,08,09,17,30,21.70
2011,08,09,17,31,21.80
2011,08,09,17,32,21.80
2011,08,09,17,33,21.90
2011,08,09,17,34,21.90
2011,08,09,17,35,21.90
2011,08,09,17,36,21.90
2011,08,09,17,37,21.90
2011,08,09,17,38,22.00
2011,08,09,17,39,22.00
2011,08,09,17,40,22.00
2011,08,09,17,41,22.00
2011,08,09,17,42,22.00
2011,08,09,17,43,22.00
2011,08,09,17,44,22.00
2011,08,09,17,45,21.90
2011,08,09,17,46,21.90
2011,08,09,17,47,21.90
2011,08,09,17,48,21.90
2011,08,09,17,49,21.90
2011,08,09,17,50,22.00
2011,08,09,17,51,22.00
2011,08,09,17,52,22.00
2011,08,09,17,53,22.10
2011,08,09,17,54,22.10
2011,08,09,17,55,22.10
2011,08,09,17,56,22.10
2011,08,09,17,57,22.10
2011,08,09,17,58,22.00
2011,08,09,17,59,22.00
2011,08,09,18,00,22.00
2011,08,09,18,01,22.00
2011,08,09,18,02,22.00
2011,08,09,18,03,22.00
2011,08,09,18,04,22.10
2011,08,09,18,05,22.10
2011,08,09,18,06,22.10
2011,08,09,18,07,22.10
2011,08,09,18,08,22.10
2011,08,09,18,09,22.00
2011,08,09,18,10,22.00
2011,08,09,18,11,21.90
2011,08,09,18,12,21.90
2011,08,09,18,13,21.90
2011,08,09,18,14,21.90
2011,08,09,18,15,21.80
2011,08,09,18,16,21.80
2011,08,09,18,17,21.80
2011,08,09,18,18,21.80
2011,08,09,18,19,21.80
2011,08,09,18,20,21.80
2011,08,09,18,21,21.70
2011,08,09,18,22,21.60
2011,08,09,18,23,21.60
2011,08,09,18,24,21.60
2011,08,09,18,25,21.50
2011,08,09,18,26,21.40
2011,08,09,18,27,21.50
2011,08,09,18,28,21.50
2011,08,09,18,29,21.40
2011,08,09,18,30,21.50
2011,08,09,18,31,21.60
2011,08,09,18,32,21.60
2011,08,09,18,33,21.60
2011,08,09,18,34,21.60
2011,08,09,18,35,21.60
2011,08,09,18,36,21.60
2011,08,09,18,37,21.60
2011,08,09,18,38,21.60
2011,08,09,18,39,21.60
2011,08,09,18,40,21.60
2011,08,09,18,41,21.60
2011,08,09,18,42,21.60
